Location: SE Lincoln, NE
(40.7805°N, 96.6275°W)
Time: 07:27:12
(UTC-05:00)

Cosmos 1680 Rocket - Pass Details

Date: 15 May 2021
Orbit: 759 x 781 km, 74.1° (Epoch: 20 June)

Event Time Altitude Azimuth Distance (km) Brightness Sun altitude
Rises 23:05:23 0° 340° (NNW) 3,275 8.1 -22.1°
Reaches altitude 10° 23:07:47 10° 339° (NNW) 2,344 7.1 -22.4°
Maximum altitude 23:13:07 84° 253° (WSW) 791 3.5 -22.9°
Enters shadow 23:14:17 56° 172° (S) 927 3.5 -23.0°
